Regional Weather Roundup
Issued by NWS

Home | Current Version | Previous Version | Graphics & Text | Print | Product List | Glossary On
Versions: 1 2 3 4 5 6 7 8 9 10 11 12 13 14 15 16 17 18 19 20 21 22 23 24 25 26 27 28 29 30 31 32 33 34 35 36 37 38 39 40 41 42 43 44 45 46 47 48 49 50
000
ASUS43 KLSX 221657
RWRMO

WEATHER SUMMARY FOR MISSOURI
NATIONAL WEATHER SERVICE SPRINGFIELD MO
1200 PM CDT SUN APR 22 2018

NOTE: "FAIR" INDICATES FEW OR NO CLOUDS BELOW 12,000 FEET WITH NO
       SIGNIFICANT WEATHER AND/OR OBSTRUCTIONS TO VISIBILITY.
       CURRENT SKY AND/OR WEATHER CONDITIONS ARE NOT AVAILABLE FOR
       CHILLICOTHE AND FARMINGTON.

MOZ001>031-035>038-043-044-053-054-221800-
...NORTHERN AND WESTERN MISSOURI...

CITY           SKY/WX    TMP DP  RH WIND       PRES   REMARKS
KANSAS CTY INT CLOUDY    54  44  69 NE13      30.14F
LEE`S SUMMIT   CLOUDY    50  46  86 NE13      30.12F
ST JOSEPH      CLOUDY    54  36  50 NE9       30.17S
CHILLICOTHE      N/A     56  35  45 E7        30.18S

$$
MOZ066>068-077>081-088>096-101>105-221800-
...SOUTHWEST MISSOURI...

CITY           SKY/WX    TMP DP  RH WIND       PRES   REMARKS
SPRINGFIELD    LGT RAIN  55  54  96 NE18      29.95F
JOPLIN         LGT RAIN  53  52  96 NE14G22   29.98S FOG
BRANSON        CLOUDY    55  54  94 N6        29.96F

$$
MOZ032>034-039>042-045>050-055>058-069>072-221800-
...CENTRAL MISSOURI...

CITY           SKY/WX    TMP DP  RH WIND       PRES   REMARKS
COLUMBIA       NOT AVBL
JEFFERSON CITY LGT RAIN  55  47  74 E9        30.09F
ROLLA          LGT RAIN  54  51  90 E20G28    30.06F
SEDALIA        CLOUDY    53  48  83 NE13      30.11S
WARRENSBURG    LGT RAIN  50  43  76 N12       30.11S

$$
MOZ051-052-059>065-221800-
...EAST CENTRAL MISSOURI...

CITY           SKY/WX    TMP DP  RH WIND       PRES   REMARKS
ST LOUIS INTL  CLOUDY    59  46  62 E14       30.12F

$$
MOZ072>076-082>087-097>100-106>115-221800-
...SOUTH CENTRAL AND SOUTHEAST MISSOURI...

CITY           SKY/WX    TMP DP  RH WIND       PRES   REMARKS
CAPE GIRARDEAU LGT RAIN  53  49  86 E9        30.07F
FARMINGTON     RAIN      54  52  94 E12       30.09S
POPLAR BLUFF   LGT RAIN  52  51  97 NE14G23   30.00S FOG
WEST PLAINS    CLOUDY    53  52  96 E8G21     29.99R

$$



USA.gov is the U.S. government's official web portal to all federal, state and local government web resources and services.